EW6810 Weather Reports


Display with metric or nautical units.
time (UTC)temp
F
wind
direction
speed
MPH
gust
MPH
rain 1hr
in
rain 24hr
in
rain mn
in
humidity
%
barometer
mb
20200406052607 39 13 1.0 6.0 0.00 0.00 0.00 79 1003.7
20200406052046 39 299 2.0 6.0 0.00 0.00 0.00 78 1003.7
20200406051612 40 344 1.0 3.0 0.00 0.00 0.00 77 1003.7
20200406051044 40 341 2.0 3.0 0.00 0.00 0.00 77 1003.7
20200406050550 40 342 1.0 3.0 0.00 0.00 0.00 77 1003.7
20200406050049 40 355 1.0 3.0 0.00 0.00 0.00 76 1003.6
20200406045557 40 74 1.0 3.0 0.00 0.00 0.00 76 1003.6
20200406045043 41 341 0.0 3.0 0.00 0.00 0.00 76 1003.5
20200406044700 41 341 1.0 3.0 0.00 0.00 0.00 75 1003.5
20200406044041 41 316 0.0 5.0 0.00 0.00 0.00 75 1003.4
20200406043541 41 30 1.0 5.0 0.00 0.00 0.00 75 1003.5
20200406043158 41 304 1.0 5.0 0.00 0.00 0.00 74 1003.4
20200406042549 41 27 1.0 5.0 0.00 0.00 0.00 74 1003.3
20200406042040 41 59 0.0 3.0 0.00 0.00 0.00 74 1003.2
20200406041605 42 360 1.0 3.0 0.00 0.00 0.00 73 1003.2
20200406041043 42 360 0.0 3.0 0.00 0.00 0.00 73 1003.2
20200406040555 42 360 1.0 3.0 0.00 0.00 0.00 73 1003.1
20200406040135 42 346 1.0 3.0 0.00 0.00 0.00 72 1003.0
20200406035544 42 84 1.0 3.0 0.00 0.00 0.00 72 1003.0
20200406035038 42 37 1.0 3.0 0.00 0.00 0.00 71 1003.0
20200406034606 42 30 1.0 5.0 0.00 0.00 0.00 71 1002.9
20200406034036 43 36 2.0 5.0 0.00 0.00 0.00 71 1002.9
20200406033540 43 21 1.0 6.0 0.00 0.00 0.00 71 1002.8
20200406033038 43 345 1.0 6.0 0.00 0.00 0.00 70 1002.7
20200406033007 43 345 1.0 6.0 0.00 0.00 0.00 70 1002.7
20200406032544 44 17 1.0 3.0 0.00 0.00 0.00 70 1002.7
20200406032037 44 308 1.0 2.0 0.00 0.00 0.00 69 1002.5
20200406031609 44 308 0.0 2.0 0.00 0.00 0.00 69 1002.5
20200406031052 45 308 0.0 2.0 0.00 0.00 0.00 68 1002.6
20200406030534 45 308 0.0 2.0 0.00 0.00 0.00 67 1002.5
20200406030147 45 308 0.0 3.0 0.00 0.00 0.00 67 1002.4
20200406025540 46 308 0.0 3.0 0.00 0.00 0.00 66 1002.3
20200406025043 46 292 0.0 2.0 0.00 0.00 0.00 66 1002.3
20200406024606 46 261 0.0 1.0 0.00 0.00 0.00 65 1002.2
20200406024044 47 261 0.0 1.0 0.00 0.00 0.00 65 1002.2
20200406023532 47 261 0.0 2.0 0.00 0.00 0.00 63 1002.1
20200406023045 47 261 0.0 2.0 0.00 0.00 0.00 62 1002.1
20200406022532 48 261 0.0 1.0 0.00 0.00 0.00 61 1002.0
20200406022032 48 261 0.0 2.0 0.00 0.00 0.00 59 1002.0
20200406021625 49 261 1.0 3.0 0.00 0.00 0.00 55 1002.1
20200406021033 49 261 1.0 3.0 0.00 0.00 0.00 55 1002.0
20200406020536 49 257 0.0 2.0 0.00 0.00 0.00 53 1002.0
20200406020134 50 155 0.0 3.0 0.00 0.00 0.00 53 1002.0
20200406015531 50 173 0.0 3.0 0.00 0.00 0.00 51 1002.0
20200406015032 50 157 0.0 3.0 0.00 0.00 0.00 51 1002.2
20200406014543 50 157 1.0 5.0 0.00 0.00 0.00 49 1002.2
20200406013536 50 168 1.0 6.0 0.00 0.00 0.00 49 1002.2
20200406013126 51 182 1.0 3.0 0.00 0.00 0.00 46 1002.2
20200406012533 51 166 1.0 4.0 0.00 0.00 0.00 46 1002.1
20200406012030 52 171 1.0 5.0 0.00 0.00 0.00 45 1002.2
20200406011558 52 119 2.0 5.0 0.00 0.00 0.00 44 1002.2
20200406011042 52 206 1.0 4.0 0.00 0.00 0.00 43 1002.2
20200406010530 52 172 0.0 6.0 0.00 0.00 0.00 41 1002.2
20200406010037 52 267 1.0 6.0 0.00 0.00 0.00 41 1002.3
20200406005536 52 273 2.0 5.0 0.00 0.00 0.00 41 1002.2
20200406005029 52 231 1.0 6.0 0.00 0.00 0.00 41 1002.2
20200406004556 53 318 2.0 6.0 0.00 0.00 0.00 42 1002.1
20200406004034 52 191 2.0 4.0 0.00 0.00 0.00 42 1002.1
20200406003538 53 183 2.0 4.0 0.00 0.00 0.00 42 1002.1
20200406003057 52 216 2.0 4.0 0.00 0.00 0.00 42 1002.1
20200406002528 52 232 1.0 4.0 0.00 0.00 0.00 42 1002.0
20200406002032 53 233 2.0 4.0 0.00 0.00 0.00 41 1002.0
20200406001547 53 313 1.0 7.0 0.00 0.00 0.00 41 1002.1
20200406001028 53 238 1.0 7.0 0.00 0.00 0.00 41 1002.1
20200406000527 53 162 1.0 4.0 0.00 0.00 0.00 40 1002.1
20200406000054 53 119 2.0 5.0 0.00 0.00 0.00 41 1002.1
20200405235528 53 221 3.0 5.0 0.00 0.00 0.00 40 1002.1
20200405235108 53 178 1.0 5.0 0.00 0.00 0.00 40 1002.2
20200405234542 53 340 1.0 7.0 0.00 0.00 0.00 39 1002.2
20200405234026 53 211 1.0 7.0 0.00 0.00 0.00 40 1002.2
20200405233528 52 173 3.0 6.0 0.00 0.00 0.00 41 1002.1
20200405233048 52 148 3.0 6.0 0.00 0.00 0.00 41 1002.2
20200405232536 52 211 2.0 5.0 0.00 0.00 0.00 41 1002.2
20200405232034 52 157 1.0 5.0 0.00 0.00 0.00 41 1002.2
20200405231620 52 213 2.0 5.0 0.00 0.00 0.00 40 1002.2
20200405231032 53 169 2.0 5.0 0.00 0.00 0.00 38 1002.1
20200405230525 54 215 2.0 8.0 0.00 0.00 0.00 38 1002.1
20200405230038 54 138 3.0 8.0 0.00 0.00 0.00 37 1002.1
20200405225529 55 207 2.0 7.0 0.00 0.00 0.00 39 1002.1
20200405225025 55 263 2.0 8.0 0.00 0.00 0.00 40 1002.0
20200405224539 54 228 3.0 8.0 0.00 0.00 0.00 40 1002.0
20200405224029 54 304 3.0 6.0 0.00 0.00 0.00 41 1002.0
20200405223539 54 278 1.0 5.0 0.00 0.00 0.00 43 1001.9
20200405223042 54 294 2.0 6.0 0.00 0.00 0.00 42 1001.9
20200405222522 54 327 3.0 7.0 0.00 0.00 0.00 42 1002.0
20200405222026 55 195 2.0 6.0 0.00 0.00 0.00 41 1001.9
20200405221609 55 117 2.0 7.0 0.00 0.00 0.00 42 1001.9
20200405063502 35 346 2.0 11.0 0.00 0.08 0.08 80 1002.8
20200405063001 35 9 2.0 11.0 0.00 0.08 0.08 80 1002.7
20200405062503 35 46 1.0 10.0 0.00 0.08 0.08 80 1002.7
20200405062100 35 304 2.0 8.0 0.00 0.08 0.08 80 1002.8
20200405061704 36 5 1.0 4.0 0.00 0.08 0.08 80 1002.8
20200405061121 36 5 1.0 5.0 0.00 0.08 0.08 80 1002.9
20200405060604 36 341 2.0 10.0 0.00 0.08 0.08 80 1002.9
20200405060124 36 38 3.0 10.0 0.00 0.08 0.08 80 1002.9
20200405055617 36 324 2.0 8.0 0.00 0.08 0.08 80 1002.9
20200405055058 36 23 3.0 8.0 0.00 0.08 0.08 80 1003.0
20200405054649 36 28 2.0 8.0 0.00 0.08 0.08 80 1003.0
20200405054059 36 23 3.0 8.0 0.00 0.08 0.08 80 1003.0
20200405053632 36 350 1.0 10.0 0.00 0.08 0.08 80 1003.0